Ellsworth AFB, SD

10:28 AM MDT on June 23, 2017 (GMT -0600)
Ellsworth Air Force Base

Weather History for KRCA - October, 2011

Change the Weather History Date:

Saturday, October 15, 2011

  Actual Average Record
Temperature  
Mean Temperature 52 °F -  
Max Temperature 69 °F 59 °F 81 °F (2010)
Min Temperature 36 °F 36 °F 30 °F (2013)
Degree Days  
Heating Degree Days 12    
Growing Degree Days 2 (Base 50)    
Moisture  
Dew Point 35 °F    
Average Humidity 58    
Maximum Humidity 81    
Minimum Humidity 29    
Precipitation  
Precipitation 0.00 in - - ()
Sea Level Pressure  
Sea Level Pressure 29.92 in    
Wind  
Wind Speed 8 mph (NW)    
Max Wind Speed 23 mph    
Max Gust Speed 31 mph    
Visibility 10 miles    
Events      
Averages and records for this station are not official NWS values.
T = Trace of Precipitation, MM = Missing Value Source: NWS Daily Summary

Daily Weather History Graph

Daily Weather History Graph

Search for Another Location

Airport or City:

Trip Planner

Search our weather history database for the weather conditions in past years. The results will help you decide how hot, cold, wet, or windy it might be!

Date:

Astronomy

Oct. 15, 2011 Rise Set
Actual Time 7:06 AM MDT 6:08 PM MDT
Civil Twilight 6:37 AM MDT 6:37 PM MDT
Nautical Twilight 6:04 AM MDT 7:11 PM MDT
Astronomical Twilight 5:30 AM MDT 7:44 PM MDT
Moon 7:58 PM MDT (10/15) 10:41 AM MDT (10/15)
Length of Visible Light 12h 00m
Length of Day
11h 01m
Waning Gibbous, 88% of the Moon is Illuminated
Oct 15
Waning Gibbous
Oct 19
Last Quarter
Oct 26
New
Nov 2
First Quarter
Nov 10
Full

Hourly Weather History & Observations

Time (MDT) Temp. Windchill Dew Point Humidity Pressure Visibility Wind Dir Wind Speed Gust Speed Precip Events Conditions
12:55 AM 43.5 °F 40.1 °F 31.1 °F 62% 30.02 in 10.0 mi South 5.8 mph - N/A   Overcast
1:55 AM 42.6 °F 39.0 °F 31.8 °F 66% 30.01 in 10.0 mi South 5.8 mph - N/A   Overcast
2:55 AM 39.9 °F 35.1 °F 30.4 °F 69% 29.99 in 10.0 mi South 6.9 mph - N/A   Partly Cloudy
3:55 AM 37.9 °F 34.4 °F 30.0 °F 73% 29.97 in 10.0 mi SW 4.6 mph - N/A   Clear
4:55 AM 36.5 °F 31.0 °F 29.7 °F 76% 29.96 in 10.0 mi SW 6.9 mph - N/A   Clear
5:55 AM 39.7 °F - 27.9 °F 63% 29.94 in 10.0 mi Calm Calm - N/A   Clear
6:55 AM 39.0 °F 36.8 °F 27.5 °F 63% 29.94 in 10.0 mi West 3.5 mph - N/A   Partly Cloudy
7:55 AM 41.7 °F 38.8 °F 28.9 °F 61% 29.92 in 10.0 mi SW 4.6 mph - N/A   Clear
8:55 AM 46.6 °F - 32.2 °F 57% 29.90 in 10.0 mi SW 4.6 mph - N/A   Clear
9:55 AM 56.3 °F - 35.6 °F 46% 29.87 in 10.0 mi Calm Calm - N/A   Clear
10:55 AM 61.9 °F - 37.9 °F 41% 29.83 in 10.0 mi South 6.9 mph - N/A   Clear
11:55 AM 64.8 °F - 38.3 °F 38% 29.79 in 10.0 mi SSE 15.0 mph - N/A   Clear
12:55 PM 67.6 °F - 36.0 °F 31% 29.75 in 10.0 mi South 17.3 mph - N/A   Scattered Clouds
1:55 PM 68.7 °F - 37.9 °F 32% 29.74 in 10.0 mi East 3.5 mph - N/A   Mostly Cloudy
2:55 PM 69.3 °F - 36.0 °F 29% 29.75 in 10.0 mi NNE 12.7 mph - N/A   Clear
3:55 PM 68.9 °F - 36.3 °F 30% 29.78 in 10.0 mi NNE 15.0 mph - N/A   Clear
4:55 PM 66.4 °F - 36.9 °F 34% 29.83 in 10.0 mi North 15.0 mph - N/A   Clear
5:55 PM 56.5 °F - 36.0 °F 46% 29.91 in 10.0 mi North 23.0 mph 31.1 mph N/A   Clear
6:55 PM 52.2 °F - 36.3 °F 55% 29.95 in 10.0 mi North 15.0 mph - N/A   Scattered Clouds
7:55 PM 49.8 °F - 37.0 °F 61% 29.97 in 10.0 mi North 13.8 mph - N/A   Clear
8:55 PM 48.6 °F - 38.8 °F 69% 30.00 in 10.0 mi North 12.7 mph - N/A   Clear
9:43 PM 48.2 °F - 41.0 °F 76% 30.01 in 10.0 mi North 16.1 mph - N/A   Overcast
9:55 PM 47.8 °F - 40.8 °F 77% 30.01 in 10.0 mi North 19.6 mph - N/A   Overcast
10:55 PM 45.9 °F 39.7 °F 39.6 °F 79% 30.04 in 10.0 mi North 13.8 mph - N/A   Overcast
11:41 PM 44.6 °F 38.1 °F 39.2 °F 81% 30.04 in 10.0 mi NNW 13.8 mph - N/A   Overcast
11:55 PM 44.2 °F 37.6 °F 38.8 °F 81% 30.04 in 10.0 mi NNW 13.8 mph - N/A   Overcast